Location: Slanting_Bridge
(35.6330°N, 80.9830°W)
Time: 20:27:30
(UTC-04:00)

Amateur Radio Satellites - All Passes

Search period start: 27 August 2016 19:57
Search period end: 28 August 2016 19:57
Location: Slanting_Bridge, 35.6330°N, 80.9830°W

Satellite Date Start Highest point End Downlink Frequencies (MHz)
Time Altitude Azimuth
CANX-2 27 Aug 20:09:13 20:13:12 43° 74° (ENE) 20:17:11 2200.000
Cosmos 2491 27 Aug 20:10:14 20:18:15 40° 284° (WNW) 20:26:22 435.465 / 435.565
GOMX 1 27 Aug 20:12:03 20:15:30 18° 269° (W) 20:19:06 467.674
Cubesat XI-IV 27 Aug 20:14:13 20:17:48 18° 266° (W) 20:21:23 437.490
CUTE 1.7 + AOD 2 27 Aug 20:15:20 20:19:19 43° 74° (ENE) 20:23:19 437.475
DOVE 4 27 Aug 20:17:40 20:22:18 35° 264° (W) 20:27:06 437.250
AAUSAT CUBESAT 2 27 Aug 20:20:39 20:23:25 18° 69° (ENE) 20:26:12 437.432
CUTE-I 27 Aug 20:27:19 20:29:50 13° 268° (W) 20:32:21 437.470
COMPASS 1 27 Aug 20:27:48 20:31:18 28° 72° (ENE) 20:34:50 437.405
YUBILEINY 27 Aug 20:36:07 20:40:22 15° 282° (WNW) 20:44:37 435.215
BEESAT 2 27 Aug 20:36:18 20:40:06 42° 245° (WSW) 20:43:52 435.950
PCSat 27 Aug 20:42:11 20:45:34 16° 49° (NE) 20:48:56 145.827
Cosmos 2504 27 Aug 20:50:20 20:56:16 29° 274° (W) 21:02:12 435.465 / 435.565
HO-68 27 Aug 20:54:45 21:01:54 68° 257° (WSW) 21:09:05 435.675
BEESAT 3 27 Aug 20:56:26 20:58:05 12° 252° (WSW) 20:59:44 437.485
CINEMA 3 27 Aug 20:58:44 21:03:31 44° 262° (W) 21:08:18 145.822/145.860
Oscar 11 27 Aug 21:02:02 21:05:19 22° 69° (ENE) 21:08:36 145.826/435.025
STRAND 1 27 Aug 21:03:46 21:08:49 63° 286° (WNW) 21:13:50 437.568
PRISM 27 Aug 21:06:42 21:08:34 13° 93° (E) 21:10:24 437.425
FUNcube-1 27 Aug 21:09:04 21:12:42 25° 71° (ENE) 21:16:16 145.935
AIST 2 27 Aug 21:10:14 21:12:58 16° 49° (NE) 21:15:39 435.215
UWE-3 27 Aug 21:14:58 21:19:25 51° 75° (ENE) 21:23:47 435.000/436.395/437.385
CUBEBUG 2 27 Aug 21:16:57 21:21:41 84° 79° (ENE) 21:26:19 437.445
SEEDS 27 Aug 21:23:35 21:27:27 38° 262° (W) 21:31:20 437.485
AIST 1 27 Aug 21:26:51 21:31:15 77° 265° (W) 21:35:36
ZACube-1 27 Aug 21:29:47 21:34:04 46° 74° (ENE) 21:38:17 437.345
CANX-2 27 Aug 21:47:23 21:49:14 13° 268° (W) 21:51:05 2200.000
CUTE 1.7 + AOD 2 27 Aug 21:53:34 21:55:21 12° 268° (W) 21:57:08 437.475
AAUSAT CUBESAT 2 27 Aug 21:55:03 21:58:40 30° 263° (W) 22:02:18 437.432
DELFI C3 27 Aug 21:58:39 22:02:16 36° 73° (ENE) 22:05:54 145.870
COMPASS 1 27 Aug 22:03:54 22:06:50 19° 266° (W) 22:09:47 437.405
HUMSAT D 27 Aug 22:16:45 22:20:21 29° 72° (ENE) 22:23:56 437.325/437.525
PCSat 27 Aug 22:24:04 22:29:28 69° 246° (WSW) 22:34:49 145.827
AUBIESAT-1 27 Aug 22:25:22 22:27:56 15° 61° (ENE) 22:30:31 437.475
M-CUBED/EXP-1 PRIME 27 Aug 22:30:04 22:33:30 21° 63° (ENE) 22:36:57 437.505
ANTELSAT 27 Aug 22:32:40 22:33:57 11° 92° (E) 22:35:13 437.575/2403.000
Oscar 11 27 Aug 22:37:37 22:41:16 27° 264° (W) 22:44:57 145.826/435.025
PRISM 27 Aug 22:40:04 22:44:03 43° 287° (WNW) 22:47:59 437.425
FUNcube-1 27 Aug 22:45:08 22:48:49 25° 264° (W) 22:52:26 145.935
AIST 2 27 Aug 22:47:39 22:51:38 43° 245° (WSW) 22:55:36 435.215
GONETS M04 27 Aug 22:51:52 22:59:14 28° 72° (ENE) 23:06:30
UWE-3 27 Aug 22:54:03 22:56:05 13° 268° (W) 22:58:06 435.000/436.395/437.385
ESTCUBE 1 27 Aug 22:59:09 23:01:40 15° 66° (ENE) 23:04:10 437.505/2401.250
TIGRISAT 27 Aug 23:01:39 23:05:08 24° 96° (E) 23:08:36 435.000
ZACube-1 27 Aug 23:08:21 23:10:31 13° 267° (W) 23:12:41 437.345
AISAT 27 Aug 23:09:24 23:09:52 10° 63° (ENE) 23:10:19 437.250
UNISAT 6 27 Aug 23:29:43 23:33:57 58° 100° (E) 23:38:08 437.425
DELFI C3 27 Aug 23:35:25 23:37:14 13° 267° (W) 23:39:03 145.870
CUSAT 1 27 Aug 23:39:50 23:42:08 22° 89° (E) 23:44:45 437.405
VELOX 1 27 Aug 23:52:56 23:56:50 31° 70° (ENE) 00:00:44 145.980
HUMSAT D 27 Aug 23:53:01 23:55:58 18° 265° (W) 23:58:53 437.325/437.525
Cosmos 2499 27 Aug 23:53:26 00:00:16 50° 79° (E) 00:07:11 435.465 / 435.565
CUBEBUG 1 27 Aug 23:54:32 23:58:37 39° 72° (ENE) 00:02:43 437.445
O/OREOS (USA 219) 27 Aug 23:54:50 23:58:39 25° 62° (ENE) 00:02:27 437.305
SO-50 27 Aug 23:56:20 00:01:06 59° 116° (ESE) 00:05:51 436.795
AUBIESAT-1 27 Aug 23:57:22 00:01:52 56° 255° (WSW) 00:06:27 437.475
QB50P1 28 Aug 00:03:05 00:05:50 17° 94° (E) 00:08:34 145.935-145.965
M-CUBED/EXP-1 PRIME 28 Aug 00:03:20 00:07:40 39° 258° (WSW) 00:12:06 437.505
ANTELSAT 28 Aug 00:06:48 00:10:56 49° 286° (WNW) 00:15:01 437.575/2403.000
DX 1 28 Aug 00:09:53 00:13:45 32° 71° (ENE) 00:17:38 434.975-435.025
SPROUT 28 Aug 00:12:18 00:15:47 24° 70° (ENE) 00:19:15 437.525
POPSAT HIP 1 28 Aug 00:12:40 00:15:56 22° 95° (E) 00:19:10 437.405
50 SAT 28 Aug 00:21:23 00:24:55 66° 76° (ENE) 00:28:29 437.505
ESTCUBE 1 28 Aug 00:33:47 00:38:02 45° 260° (W) 00:42:22 437.505/2401.250
DANDE 28 Aug 00:37:45 00:40:05 31° 95° (E) 00:42:30 436.750
TIGRISAT 28 Aug 00:38:21 00:41:43 23° 290° (WNW) 00:45:03 435.000
DUCHIFAT 1 28 Aug 00:39:40 00:43:38 40° 99° (E) 00:47:34 145.980
AISAT 28 Aug 00:41:18 00:45:42 68° 258° (WSW) 00:50:10 437.250
QB50P2 28 Aug 00:42:23 00:46:33 55° 101° (E) 00:50:39 145.880/145.840
POLYITAN 1 28 Aug 00:44:54 00:49:03 56° 100° (E) 00:53:09 437.675
PHONESAT 2.4 28 Aug 00:45:22 00:45:29 10° 142° (SE) 00:45:35 2401.200-2431.200
GONETS M04 28 Aug 00:47:50 00:56:25 57° 270° (W) 01:04:58
UKube-1 28 Aug 00:49:36 00:53:54 73° 76° (ENE) 00:58:13 .
NANOSAT C BR1 28 Aug 00:53:23 00:57:34 67° 101° (E) 01:01:43 145.865
UNISAT 6 28 Aug 01:09:20 01:10:07 10° 296° (WNW) 01:10:55 437.425
JAS-2 28 Aug 01:13:50 01:20:42 57° 101° (E) 01:28:12 435.910
VELOX 1 28 Aug 01:29:59 01:33:17 20° 265° (W) 01:36:35 145.980
Oscar 19 28 Aug 01:30:42 01:32:08 11° 91° (E) 01:33:35 437.125/150
RS-15 28 Aug 01:30:51 01:41:53 59° 111° (ESE) 01:53:31 29.354- 29.394
CUBEBUG 1 28 Aug 01:32:22 01:35:01 16° 267° (W) 01:37:40 437.445
O/OREOS (USA 219) 28 Aug 01:34:07 01:37:58 27° 258° (WSW) 01:41:49 437.305
BUGSAT 1 28 Aug 01:34:09 01:38:17 77° 102° (ESE) 01:42:20 437.445
QB50P1 28 Aug 01:37:53 01:41:40 32° 288° (WNW) 01:45:24 145.935-145.965
SO-50 28 Aug 01:38:47 01:41:57 17° 313° (NW) 01:45:06 436.795
SWISSCUBE 28 Aug 01:45:17 01:47:18 13° 64° (ENE) 01:49:20 437.505
DX 1 28 Aug 01:46:51 01:49:57 19° 265° (W) 01:53:05 434.975-435.025
Cosmos 2499 28 Aug 01:47:34 01:52:52 23° 275° (W) 01:58:13 435.465 / 435.565
SPROUT 28 Aug 01:48:04 01:51:35 24° 264° (W) 01:55:08 437.525
POPSAT HIP 1 28 Aug 01:48:09 01:51:39 26° 290° (WNW) 01:55:06 437.405
BEESAT 28 Aug 02:01:15 02:04:17 17° 66° (ENE) 02:07:19 436.000
TISAT 1 28 Aug 02:05:29 02:09:43 77° 258° (WSW) 02:13:59 437.305
DUCHIFAT 1 28 Aug 02:16:42 02:18:57 14° 293° (WNW) 02:21:10 145.980
PHONESAT 2.4 28 Aug 02:18:26 02:21:25 67° 156° (SSE) 02:24:24 2401.200-2431.200
QB50P2 28 Aug 02:20:42 02:21:49 11° 295° (WNW) 02:22:55 145.880/145.840
POLYITAN 1 28 Aug 02:23:21 02:24:19 11° 295° (WNW) 02:25:17 437.675
Gurwin Techsat 1B 28 Aug 02:40:06 02:44:34 27° 96° (E) 02:49:00 435.225
ITUPSAT 1 28 Aug 02:47:00 02:51:36 51° 73° (ENE) 02:56:12 437.325
JAS-2 28 Aug 02:59:50 03:05:19 26° 294° (WNW) 03:11:13 435.910
Oscar 19 28 Aug 03:06:44 03:11:55 72° 285° (WNW) 03:17:05 437.125/150
SWISSCUBE 28 Aug 03:19:51 03:24:32 61° 259° (WSW) 03:29:15 437.505
BEESAT 28 Aug 03:37:09 03:41:41 44° 261° (W) 03:46:14 436.000
KKS-1 28 Aug 03:41:32 03:44:48 20° 68° (ENE) 03:48:05 437.445
RS-15 28 Aug 03:44:03 03:54:46 42° 313° (NW) 04:06:06 29.354- 29.394
MOZHAYETS 4 28 Aug 03:48:31 03:52:29 30° 71° (ENE) 03:56:28
PHONESAT 2.4 28 Aug 03:55:06 03:57:54 35° 351° (N) 04:00:41 2401.200-2431.200
STARS 28 Aug 04:16:21 04:19:51 23° 69° (ENE) 04:23:20 437.465
Gurwin Techsat 1B 28 Aug 04:19:47 04:24:28 33° 291° (WNW) 04:29:09 435.225
ITAMSAT 1 28 Aug 04:21:24 04:26:36 77° 103° (ESE) 04:31:47 435.822/435.867
ITUPSAT 1 28 Aug 04:27:14 04:29:40 14° 267° (W) 04:32:06 437.325
Cosmos 2491 28 Aug 04:29:05 04:34:02 16° 65° (ENE) 04:38:58 435.465 / 435.565
AO-7 28 Aug 04:57:05 05:05:20 64° 104° (ESE) 05:13:31 29.400- 29.500
CUBESAT XI-V 28 Aug 05:09:30 05:13:21 27° 70° (ENE) 05:17:15 437.345
KKS-1 28 Aug 05:17:06 05:21:07 32° 262° (W) 05:25:10 437.445
MOZHAYETS 4 28 Aug 05:26:09 05:29:38 21° 265° (W) 05:33:07
PHONESAT 2.4 28 Aug 05:31:51 05:34:38 33° 8° (N) 05:37:24 2401.200-2431.200
AO-85 28 Aug 05:34:22 05:39:37 57° 116° (ESE) 05:44:38 145.980
YUBILEINY 28 Aug 05:39:37 05:45:40 21° 81° (E) 05:51:42 435.215
STARS 28 Aug 05:52:15 05:56:02 27° 263° (W) 05:59:50 437.465
ITAMSAT 1 28 Aug 06:03:35 06:05:22 12° 298° (WNW) 06:07:09 435.822/435.867
RS-15 28 Aug 06:05:20 06:12:07 16° 346° (NNW) 06:19:01 29.354- 29.394
Cosmos 2491 28 Aug 06:23:13 06:32:06 88° 86° (E) 06:40:57 435.465 / 435.565
HORYU 2 28 Aug 06:32:46 06:37:12 90° 280° (W) 06:41:36 437.375
GOMX 1 28 Aug 06:38:29 06:42:10 19° 92° (E) 06:45:41 467.674
STRAND 1 28 Aug 06:40:16 06:43:01 15° 64° (ENE) 06:45:45 437.568
LilacSat-2 28 Aug 06:42:55 06:45:02 14° 94° (E) 06:47:09 437.200
CUBESAT XI-V 28 Aug 06:46:55 06:50:39 24° 265° (W) 06:54:25 437.345
AO-7 28 Aug 06:50:54 06:57:28 27° 301° (WNW) 07:04:01 29.400- 29.500
Cubesat XI-IV 28 Aug 06:53:10 06:57:26 24° 95° (E) 07:01:42 437.490
BRITE-PL 28 Aug 07:02:59 07:08:43 77° 102° (ESE) 07:14:14 437.365/2234.400
NOAA 15 28 Aug 07:04:15 07:09:16 41° 99° (E) 07:14:15 137.62
CUTE-I 28 Aug 07:04:33 07:09:16 32° 97° (E) 07:13:57 437.470
PHONESAT 2.4 28 Aug 07:08:09 07:11:08 74° 204° (SSW) 07:14:06 2401.200-2431.200
AO-85 28 Aug 07:16:36 07:20:23 20° 311° (NW) 07:24:02 145.980
Cosmos 2504 28 Aug 07:30:16 07:38:04 42° 89° (E) 07:45:25 435.465 / 435.565
YUBILEINY 28 Aug 07:32:42 07:41:30 72° 278° (W) 07:50:21 435.215
NOAA 18 28 Aug 07:47:53 07:53:21 74° 103° (ESE) 07:58:47 137.9125
GOMX 1 28 Aug 08:15:18 08:20:27 46° 287° (WNW) 08:25:19 467.674
LilacSat-2 28 Aug 08:16:04 08:19:22 29° 287° (WNW) 08:22:39 437.200
STRAND 1 28 Aug 08:16:37 08:21:39 59° 259° (W) 08:26:42 437.568
DOVE 4 28 Aug 08:19:29 08:24:32 89° 108° (ESE) 08:29:14 437.250
Cosmos 2491 28 Aug 08:22:58 08:27:39 16° 282° (WNW) 08:32:20 435.465 / 435.565
RS-15 28 Aug 08:23:44 08:31:54 19° 24° (NNE) 08:40:03 29.354- 29.394
ISS 28 Aug 08:25:51 08:28:54 37° 133° (SE) 08:31:58 145.825
HO-68 28 Aug 08:26:26 08:32:24 28° 96° (E) 08:38:18 435.675
SO-50 28 Aug 08:31:14 08:34:58 24° 51° (NE) 08:38:37 436.795
Cubesat XI-IV 28 Aug 08:32:43 08:37:32 36° 290° (WNW) 08:42:20 437.490
BRITE-PL 28 Aug 08:43:37 08:46:23 14° 297° (WNW) 08:49:08 437.365/2234.400
CUTE-I 28 Aug 08:44:43 08:49:09 28° 292° (WNW) 08:53:35 437.470
NOAA 15 28 Aug 08:44:44 08:48:44 22° 294° (WNW) 08:52:43 137.62
PHONESAT 2.4 28 Aug 08:46:06 08:47:06 11° 217° (SW) 08:48:05 2401.200-2431.200
CINEMA 3 28 Aug 08:56:45 09:01:10 56° 100° (E) 09:05:22 145.822/145.860
BEESAT 3 28 Aug 09:06:12 09:08:28 15° 109° (ESE) 09:10:44 437.485
UWE-3 28 Aug 09:09:59 09:11:18 11° 92° (E) 09:12:38 435.000/436.395/437.385
SEEDS 28 Aug 09:10:01 09:13:59 40° 98° (E) 09:17:58 437.485
CUBEBUG 2 28 Aug 09:11:57 09:15:02 20° 94° (E) 09:18:04 437.445
Cosmos 2504 28 Aug 09:23:46 09:31:23 36° 284° (WNW) 09:38:37 435.465 / 435.565
PRISM 28 Aug 09:26:01 09:30:05 86° 77° (ENE) 09:34:13 437.425
NOAA 18 28 Aug 09:30:47 09:33:19 13° 299° (WNW) 09:35:51 137.9125
CANX-2 28 Aug 09:32:32 09:36:42 60° 285° (WNW) 09:40:52 2200.000
YUBILEINY 28 Aug 09:37:06 09:39:55 12° 298° (WNW) 09:42:45 435.215
CUTE 1.7 + AOD 2 28 Aug 09:38:31 09:42:41 59° 285° (WNW) 09:46:52 437.475
AAUSAT CUBESAT 2 28 Aug 09:39:32 09:43:35 48° 99° (E) 09:47:37 437.432
COMPASS 1 28 Aug 09:48:03 09:52:14 82° 100° (E) 09:56:26 437.405
AIST 1 28 Aug 09:52:38 09:56:57 72° 95° (E) 10:01:19
TIGRISAT 28 Aug 09:57:57 10:00:57 17° 68° (ENE) 10:03:55 435.000
ISS 28 Aug 10:02:53 10:05:27 21° 329° (NNW) 10:08:02 145.825
SO-50 28 Aug 10:11:24 10:15:28 32° 247° (WSW) 10:19:25 436.795
CUSAT 1 28 Aug 10:11:56 10:17:50 31° 76° (ENE) 10:24:31 437.405
HO-68 28 Aug 10:13:26 10:20:16 49° 292° (WNW) 10:27:04 435.675
BEESAT 2 28 Aug 10:24:54 10:28:48 66° 117° (ESE) 10:32:44 435.950
UNISAT 6 28 Aug 10:25:22 10:29:36 37° 72° (ENE) 10:33:46 437.425
Oscar 11 28 Aug 10:26:52 10:31:09 65° 101° (E) 10:35:26 145.826/435.025
FUNcube-1 28 Aug 10:35:11 10:39:20 76° 103° (ESE) 10:43:27 145.935
RS-15 28 Aug 10:36:03 10:48:10 55° 53° (NE) 10:59:59 29.354- 29.394
CINEMA 3 28 Aug 10:36:15 10:37:42 11° 296° (WNW) 10:39:09 145.822/145.860
BEESAT 3 28 Aug 10:42:11 10:45:47 36° 304° (NW) 10:49:26 437.485
UWE-3 28 Aug 10:44:02 10:48:01 45° 286° (WNW) 10:51:58 435.000/436.395/437.385
SEEDS 28 Aug 10:47:02 10:49:19 14° 293° (WNW) 10:51:37 437.485
CUBEBUG 2 28 Aug 10:48:05 10:51:39 27° 289° (WNW) 10:55:08 437.445
JUGNU 28 Aug 10:56:05 10:58:22 12° 168° (SSE) 11:00:39 437.505
ZACube-1 28 Aug 10:57:08 11:01:11 52° 285° (WNW) 11:05:11 437.345
ANTELSAT 28 Aug 11:01:52 11:06:29 85° 256° (WSW) 11:11:02 437.575/2403.000
POPSAT HIP 1 28 Aug 11:03:53 11:05:36 12° 65° (ENE) 11:07:18 437.405
DELFI C3 28 Aug 11:13:15 11:17:15 84° 283° (WNW) 11:21:16 145.870
DANDE 28 Aug 11:13:56 11:19:14 37° 79° (E) 11:25:51 436.750
AAUSAT CUBESAT 2 28 Aug 11:16:57 11:18:36 12° 294° (WNW) 11:20:16 437.432
PCSat 28 Aug 11:20:39 11:24:51 23° 106° (ESE) 11:29:05 145.827
JAS-2 28 Aug 11:27:23 11:29:44 13° 61° (ENE) 11:32:08 435.910
DUCHIFAT 1 28 Aug 11:29:07 11:32:20 21° 69° (ENE) 11:35:34 145.980
QB50P2 28 Aug 11:32:15 11:35:54 28° 71° (ENE) 11:39:34 145.880/145.840
TIGRISAT 28 Aug 11:32:58 11:37:19 40° 261° (W) 11:41:35 435.000
POLYITAN 1 28 Aug 11:34:45 11:38:25 29° 71° (ENE) 11:42:06 437.675
HUMSAT D 28 Aug 11:37:44 11:41:50 84° 102° (ESE) 11:45:56 437.325/437.525
AUBIESAT-1 28 Aug 11:41:55 11:43:10 11° 95° (E) 11:44:24 437.475
NANOSAT C BR1 28 Aug 11:42:35 11:46:23 33° 72° (ENE) 11:50:13 145.865
M-CUBED/EXP-1 PRIME 28 Aug 11:46:57 11:49:40 18° 98° (E) 11:52:14 437.505
GONETS M04 28 Aug 11:49:13 11:56:51 35° 86° (E) 12:04:32
CUSAT 1 28 Aug 11:53:25 11:59:50 47° 267° (W) 12:07:14 437.405
UNISAT 6 28 Aug 12:03:13 12:06:22 18° 266° (W) 12:09:29 437.425
BEESAT 2 28 Aug 12:05:54 12:07:02 11° 314° (NW) 12:08:11 435.950
BUGSAT 1 28 Aug 12:20:45 12:24:36 35° 72° (ENE) 12:28:29 437.445
Cosmos 2499 28 Aug 12:25:41 12:33:28 47° 90° (E) 12:40:43 435.465 / 435.565
QB50P1 28 Aug 12:26:32 12:30:47 67° 259° (W) 12:35:03 145.935-145.965
ESTCUBE 1 28 Aug 12:28:56 12:33:18 45° 99° (E) 12:37:39 437.505/2401.250
AISAT 28 Aug 12:34:47 12:38:37 28° 97° (E) 12:42:25 437.250
POPSAT HIP 1 28 Aug 12:36:44 12:40:53 51° 260° (W) 12:45:04 437.405
UKube-1 28 Aug 12:41:03 12:43:32 15° 94° (E) 12:46:01 .
AIST 2 28 Aug 12:41:52 12:45:57 78° 118° (ESE) 12:50:04 435.215
JUGNU 28 Aug 12:42:56 12:46:37 17° 178° (S) 12:50:16 437.505
Oscar 19 28 Aug 12:44:30 12:46:55 13° 63° (ENE) 12:49:21 437.125/150
RS-15 28 Aug 12:49:06 13:00:18 43° 253° (WSW) 13:11:16 29.354- 29.394
DANDE 28 Aug 12:56:44 13:01:53 32° 266° (W) 13:08:10 436.750
PCSat 28 Aug 13:02:52 13:07:57 41° 302° (WNW) 13:13:04 145.827
DUCHIFAT 1 28 Aug 13:04:14 13:07:51 27° 263° (W) 13:11:29 145.980
QB50P2 28 Aug 13:08:28 13:11:40 20° 265° (W) 13:14:53 145.880/145.840
JAS-2 28 Aug 13:08:59 13:14:06 66° 259° (WSW) 13:19:31 435.910
POLYITAN 1 28 Aug 13:11:01 13:14:11 20° 265° (W) 13:17:22 437.675
AUBIESAT-1 28 Aug 13:14:10 13:17:55 40° 292° (WNW) 13:21:23 437.475
NANOSAT C BR1 28 Aug 13:19:18 13:22:10 17° 266° (W) 13:25:01 145.865
M-CUBED/EXP-1 PRIME 28 Aug 13:20:46 13:24:14 28° 295° (WNW) 13:27:28 437.505
VELOX 1 28 Aug 13:21:33 13:26:03 87° 282° (WNW) 13:30:29 145.980
CUBEBUG 1 28 Aug 13:21:48 13:26:12 67° 285° (WNW) 13:30:34 437.445
50 SAT 28 Aug 13:25:43 13:29:20 62° 283° (WNW) 13:32:57 437.505
SPROUT 28 Aug 13:35:56 13:40:12 69° 101° (E) 13:44:26 437.525
DX 1 28 Aug 13:36:22 13:40:46 89° 281° (W) 13:45:08 434.975-435.025
GONETS M04 28 Aug 13:45:08 13:53:22 45° 283° (WNW) 14:01:43
TISAT 1 28 Aug 13:53:10 13:56:15 20° 95° (E) 13:59:18 437.305
BUGSAT 1 28 Aug 13:57:21 14:00:02 16° 266° (W) 14:02:45 437.445
Gurwin Techsat 1B 28 Aug 13:58:16 14:02:57 33° 69° (ENE) 14:07:38 435.225
O/OREOS (USA 219) 28 Aug 14:03:38 14:07:56 48° 106° (ESE) 14:12:17 437.305
AO-7 28 Aug 14:06:12 14:09:29 13° 50° (NE) 14:12:47 29.400- 29.500
ESTCUBE 1 28 Aug 14:07:06 14:09:42 15° 294° (WNW) 14:12:17 437.505/2401.250
AO-85 28 Aug 14:10:22 14:13:24 19° 49° (NE) 14:16:18 145.980
AISAT 28 Aug 14:11:25 14:14:55 23° 291° (WNW) 14:18:23 437.250
UKube-1 28 Aug 14:15:39 14:19:42 39° 288° (WNW) 14:23:44 .
Cosmos 2499 28 Aug 14:19:43 14:26:40 30° 285° (WNW) 14:33:14 435.465 / 435.565
Oscar 19 28 Aug 14:20:29 14:25:36 67° 258° (WSW) 14:30:47 437.125/150
SRMSAT 28 Aug 14:21:34 14:24:56 16° 174° (S) 14:28:19 437.500
AIST 2 28 Aug 14:24:17 14:24:57 10° 315° (NW) 14:25:37 435.215
JUGNU 28 Aug 14:31:42 14:34:51 15° 188° (S) 14:38:01 437.505
ITUPSAT 1 28 Aug 14:51:35 14:54:35 16° 94° (E) 14:57:34 437.325
ISS 28 Aug 14:56:28 14:58:40 16° 29° (NNE) 15:00:52 145.825
SWISSCUBE 28 Aug 15:22:57 15:27:29 42° 99° (E) 15:31:59 437.505
TISAT 1 28 Aug 15:28:18 15:31:53 28° 289° (WNW) 15:35:26 437.305
ITAMSAT 1 28 Aug 15:36:21 15:41:32 86° 79° (E) 15:46:44 435.822/435.867
Gurwin Techsat 1B 28 Aug 15:38:25 15:42:51 27° 264° (W) 15:47:19 435.225
BEESAT 28 Aug 15:39:52 15:44:34 58° 101° (E) 15:49:14 436.000
O/OREOS (USA 219) 28 Aug 15:45:08 15:47:36 14° 302° (WNW) 15:50:06 437.305
AO-85 28 Aug 15:50:13 15:53:56 33° 247° (WSW) 15:57:26 145.980
AO-7 28 Aug 15:52:26 16:00:41 67° 69° (ENE) 16:08:56 29.400- 29.500
SRMSAT 28 Aug 16:09:49 16:13:20 16° 184° (S) 16:16:52 437.500
ITUPSAT 1 28 Aug 16:28:04 16:32:34 43° 288° (WNW) 16:37:04 437.325
ISS 28 Aug 16:32:08 16:35:22 56° 225° (SW) 16:38:34 145.825
SWISSCUBE 28 Aug 17:01:45 17:04:55 18° 294° (WNW) 17:08:04 437.505
KKS-1 28 Aug 17:10:24 17:14:48 58° 101° (E) 17:19:10 437.445
BEESAT 28 Aug 17:19:34 17:21:48 13° 296° (WNW) 17:24:04 436.000
MOZHAYETS 4 28 Aug 17:22:39 17:27:14 75° 283° (WNW) 17:31:48
Cosmos 2491 28 Aug 17:27:24 17:33:07 20° 80° (E) 17:38:52 435.465 / 435.565
HORYU 2 28 Aug 17:27:33 17:31:55 57° 74° (ENE) 17:36:18 437.375
NOAA 18 28 Aug 17:34:26 17:36:48 13° 61° (ENE) 17:39:09 137.9125
STARS 28 Aug 17:43:45 17:48:08 66° 102° (ESE) 17:52:28 437.465
GOMX 1 28 Aug 17:44:00 17:46:54 15° 64° (ENE) 17:49:52 467.674
YUBILEINY 28 Aug 17:46:49 17:55:17 50° 78° (ENE) 18:03:39 435.215
AO-7 28 Aug 17:47:35 17:53:54 24° 265° (W) 18:00:17 29.400- 29.500
SRMSAT 28 Aug 18:00:30 18:01:43 11° 194° (SSW) 18:02:56 437.500
BRITE-PL 28 Aug 18:10:31 18:15:13 60° 74° (ENE) 18:20:21 437.365/2234.400
Cubesat XI-IV 28 Aug 18:12:13 18:16:51 31° 69° (ENE) 18:21:28 437.490
NOAA 15 28 Aug 18:21:21 18:26:23 49° 72° (ENE) 18:31:28 137.62
CUTE-I 28 Aug 18:23:24 18:28:20 40° 71° (ENE) 18:33:16 437.470
CUBESAT XI-V 28 Aug 18:45:11 18:49:54 80° 284° (WNW) 18:54:37 437.345
BEESAT 2 28 Aug 18:46:25 18:49:06 17° 50° (NE) 18:51:44 435.950
KKS-1 28 Aug 18:49:14 18:50:49 12° 296° (WNW) 18:52:24 437.445
HO-68 28 Aug 18:54:11 18:58:14 16° 57° (ENE) 19:02:17 435.675
LilacSat-2 28 Aug 18:54:17 18:58:08 82° 77° (ENE) 19:01:58 437.200
BEESAT 3 28 Aug 19:01:40 19:05:30 45° 57° (ENE) 19:09:18 437.485
HORYU 2 28 Aug 19:07:39 19:08:47 11° 268° (W) 19:09:53 437.375
NOAA 18 28 Aug 19:11:10 19:16:43 79° 256° (WSW) 19:22:17 137.9125
Cosmos 2504 28 Aug 19:19:01 19:26:13 69° 82° (E) 19:33:21 435.465 / 435.565
GOMX 1 28 Aug 19:19:21 19:24:19 61° 260° (W) 19:29:36 467.674
Cosmos 2491 28 Aug 19:20:14 19:28:56 74° 278° (W) 19:37:42 435.465 / 435.565
DOVE 4 28 Aug 19:20:45 19:25:50 64° 75° (ENE) 19:31:05 437.250
STARS 28 Aug 19:23:31 19:23:53 10° 296° (WNW) 19:24:14 437.465
BRITE-PL 28 Aug 19:52:10 19:54:12 12° 271° (W) 19:56:18 437.365/2234.400
